Location: Cisewo
(53.3833°N, 14.9000°E)
Time: 10:29:36
(UTC+00:00)

First-Move - Visible Passes

Search period start: 27 September 2021 00:00
Search period end: 07 October 2021 00:00
Orbit: 576 x 665 km, 97.6° (Epoch: 26 September)

Date Brightness Start Highest point End Pass type
(mag) Time Alt. Az. Time Alt. Az. Time Alt. Az.
27 Sep ? 03:20:39 10° NNE 03:24:43 42° E 03:28:40 10° S visible
28 Sep ? 03:38:00 10° NNE 03:42:14 61° E 03:46:20 10° S visible
29 Sep ? 02:21:05 10° ENE 02:22:49 12° E 02:24:32 10° ESE visible
29 Sep ? 03:55:25 10° NNE 03:59:41 89° E 04:03:50 10° SSW visible
30 Sep ? 02:37:38 10° NE 02:40:29 17° E 02:43:17 10° SE visible
30 Sep ? 04:12:54 10° N 04:17:06 64° WNW 04:21:11 10° SSW visible
01 Oct ? 02:54:37 10° NE 02:58:06 24° E 03:01:30 10° SSE visible
02 Oct ? 03:11:48 10° NNE 03:15:39 35° E 03:19:27 10° SSE visible
03 Oct ? 03:29:05 10° NNE 03:33:11 50° E 03:37:11 10° S visible
04 Oct ? 03:46:27 10° NNE 03:50:39 75° ESE 03:54:45 10° S visible
05 Oct ? 02:29:01 10° NE 02:31:21 14° E 02:33:39 10° ESE visible
05 Oct ? 04:03:53 10° NNE 04:08:05 76° WNW 04:12:10 10° SSW visible
06 Oct ? 02:45:49 10° NE 02:48:58 20° E 02:52:04 10° SE visible
06 Oct ? 04:21:23 10° N 04:25:27 52° WNW 04:29:26 10° SW visible
